Regional Weather Roundup
Issued by NWS

Home | Current Version | Previous Version | Text Only | Print | Product List | Glossary Off
Versions: 1 2 3 4 5 6 7 8 9 10 11 12 13 14 15 16 17 18 19 20 21 22 23 24 25 26 27 28 29 30 31 32 33 34 35 36 37 38 39 40 41 42 43 44 45 46 47 48 49 50

000
ASUS43 KMPX 230101
RWRMN
WEATHER ROUNDUP FOR MINNESOTA
NATIONAL WEATHER SERVICE TWIN CITIES/CHANHASSEN MN
800 PM CDT SUN APR 22 2018


NOTE: "FAIR" INDICATES FEW OR NO CLOUDS BELOW 12,000 FEET WITH NO
SIGNIFICANT WEATHER AND/OR OBSTRUCTIONS TO VISIBILITY. N/A MEANS
CURRENT SKY AND/OR WEATHER CONDITIONS ARE NOT AVAILABLE.

MNZ060>063-068>070-230200-
   Twin Cities Metro

CITY           SKY/WX    TMP DP  RH WIND       PRES   REMARKS
TWIN CITIES    FAIR      59  36  42 S7        30.24S
ST PAUL        FAIR      56  36  47 S7        30.24S
BLAINE         PTCLDY    59  34  38 SE6       30.23S
LAKEVILLE      FAIR      55  37  50 CALM      30.24S
EDEN PRAIRIE   FAIR      57  37  47 S7        30.23S
SOUTH ST PAUL  FAIR      59  35  40 CALM      30.24R
LAKE ELMO      FAIR      59  37  44 S5        30.24F
$$
MNZ001>005-007-008-013>017-022>024-027-028-230200-
   Northwest Minnesota

CITY           SKY/WX    TMP DP  RH WIND       PRES   REMARKS
BEMIDJI        FAIR      56  32  39 SW7       30.17S
HALLOCK        FAIR      59  46  63 S10       30.08S
ROSEAU         FAIR      57  46  67 SW12G18   30.10F
WARROAD        CLOUDY    57  45  62 SW8       30.11S
THIEF RVR FALL FAIR      57  42  57 SW10      30.14S
CROOKSTON      FAIR      57  46  67 SW9       30.13F
FOSSTON        CLOUDY    55  39  54 S12       30.16S
DETROIT LAKES  FAIR      54  36  50 S10       30.20S
MOORHEAD       FAIR      57  43  58 S12       30.17S
PARK RAPIDS    FAIR      55  37  50 SW12      30.19S
MAHNOMEN       CLOUDY    57  40  53 S13       30.17S
$$
MNZ006-009>011-018-025>026-230200-
   North Central Minnesota

CITY           SKY/WX    TMP DP  RH WIND       PRES   REMARKS
BAUDETTE       FAIR      57  40  52 SW12      30.12S
FLAG ISLAND    FAIR      50  37  62 SW13      30.08S
INTL FALLS     FAIR      59  31  34 SW7       30.13R
WASKISH        FAIR      48  36  61 SW9       30.16R
BIG FORK       FAIR      54  34  47 S7        30.17S
LONGVILLE      FAIR      57  30  35 S5        30.20S
GRAND RAPIDS   FAIR      56  31  38 S6        30.21F
CRANE LAKE     FAIR      55  25  30 S3        30.17S
ORR            FAIR      55  23  28 S3        30.15S
COOK           FAIR      57  28  33 S5        30.18S
WALKER         FAIR      56  32  39 SW8       30.18S
$$
MNZ012-019>021-037-230200-
   Northeast Minnesota

CITY           SKY/WX    TMP DP  RH WIND       PRES   REMARKS
DULUTH         FAIR      54  30  40 S5        30.22R
ELY            FAIR      55  25  30 SW6       30.19R
HIBBING        FAIR      55  28  35 S6        30.19S
EVELETH        FAIR      54  26  33 SW7       30.22R
DULUTH HARBOR  FAIR      39  30  70 NW3       30.24S
TWO HARBORS    FAIR      52  27  37 CALM      30.21S
SILVER BAY     FAIR      46  18  31 CALM      30.21S
GRAND MARAIS     N/A     38  29  70 CALM      30.25R
G MARAIS ARPRT FAIR      45  18  33 S5        30.23R
$$
MNZ029>031-032-039>041-046>048-054>057-064-230200-
   West Central Minnesota

CITY           SKY/WX    TMP DP  RH WIND       PRES   REMARKS
FERGUS FALLS   FAIR      54  39  58 S9        30.18S
WHEATON        CLEAR     54  37  54 SE10      30.22S
MORRIS         CLEAR     54  41  62 S5        30.22S
ALEXANDRIA     FAIR      56  40  55 S8        30.23S
ELBOW LAKE     FAIR      51  39  61 S8        30.22S
WADENA         FAIR      54  37  54 SW6       30.21S
GLENWOOD       FAIR      52  43  71 SW6       30.24R
APPLETON       CLEAR     54  37  54 S6        30.23S
BENSON         CLEAR     54  41  62 SW5       30.25S
ORTONVILLE     CLEAR     54  37  54 S8        30.22S
MADISON        CLEAR     54  43  66 S7        30.23S
WILLMAR        FAIR      54  43  66 CALM      30.26S
$$
MNZ033>034-036-042>043-049>051-058-059-230200-
   Central Minnesota

CITY           SKY/WX    TMP DP  RH WIND       PRES   REMARKS
ST CLOUD       FAIR      56  38  50 S5        30.23S
SAUK CENTRE    FAIR      52  41  64 S7        30.23S
PAYNESVILLE    FAIR      56  42  59 CALM      30.24S
AITKIN         FAIR      52  30  43 S5        30.21S
PINE RIVER     FAIR      54  34  47 S5        30.24R
BRAINERD       FAIR      57  32  38 S9        30.22S
STAPLES        FAIR      54  34  47 S6        30.22S
LONG PRAIRIE   FAIR      52  37  58 SE7       30.23S
LITTLE FALLS   FAIR      55  27  33 CALM      30.23S
LITCHFIELD     FAIR      55  39  54 CALM      30.24S
BUFFALO        FAIR      56  36  46 CALM      30.24S
MAPLE LAKE     FAIR      57  39  50 CALM      30.24S
HUTCHINSON     FAIR      56  45  65 CALM      30.25R
$$
MNZ037-044-045-052-053-230200-
   East Central Minnesota

CITY           SKY/WX    TMP DP  RH WIND       PRES   REMARKS
PRINCETON      FAIR      57  34  41 CALM      30.24S
MORA           FAIR      55  32  41 CALM      30.25S
CAMBRIDGE      FAIR      59  37  44 CALM      30.24R
RUSH CITY      FAIR      56  32  39 CALM      30.24S
MOOSE LAKE     FAIR      55  32  41 SW5       30.21S
HINCKLEY       FAIR      55  34  44 S5        30.23F
CLOQUET        FAIR      55  23  28 SW5       30.22S
MCGREGOR       FAIR      55  32  41 SW6       30.23S
$$
MNZ071>073-080-081-089-090-097-098-230200-
   Southwest Minnesota

CITY           SKY/WX    TMP DP  RH WIND       PRES   REMARKS
MONTEVIDEO     CLEAR     54  37  54 SW5       30.24S
GRANITE FALLS  CLEAR     52  44  73 SE7       30.25S
CANBY          CLEAR     51  39  63 S3        30.24S
MARSHALL       CLEAR     51  37  58 S3        30.24R
REDWOOD FALLS  CLEAR     52  42  69 S7        30.23S
OLIVIA         CLEAR     54  43  66 S3        30.23S
PIPESTONE      CLEAR    N/A N/A N/A SE5       30.22S
WINDOM         CLEAR     48  27  43 CALM      30.23R
WORTHINGTON    CLEAR     48  41  76 SE5       30.23R
JACKSON        CLEAR     43  36  75 E8        30.22F
TRACY          CLEAR     48  41  77 S3        30.23S
SLAYTON        CLEAR     47  37  68 SE7       30.23S
$$
MNZ065>067-074>077-082>085-091>093-230200-
   South Central Minnesota

CITY           SKY/WX    TMP DP  RH WIND       PRES   REMARKS
MANKATO        FAIR      55  40  56 SE6       30.24S
NEW ULM        CLEAR     52  41  66 S6        30.23S
ST JAMES       CLEAR     46  39  76 E5        30.24S
FAIRMONT       CLEAR     49  39  68 E3        30.23F
GLENCOE        FAIR      57  43  60 CALM      30.23R
OWATONNA       FAIR      55  39  54 CALM      30.24S
WASECA         FAIR      54  43  66 E5        30.25S
ALBERT LEA     FAIR      54  36  50 E5        30.23S
$$
MNZ078>079-086>088-094>096-230200-
   Southeast Minnesota

CITY           SKY/WX    TMP DP  RH WIND       PRES   REMARKS
ROCHESTER      FAIR      54  36  50 E5        30.24S
RED WING       FAIR      57  27  30 SE3       30.24R
STANTON        FAIR      58  37  45 CALM      30.23S
DODGE CENTER   FAIR      54  43  66 E3        30.24S
WINONA         FAIR      55  32  41 SE3       30.23R
AUSTIN         FAIR      54  43  66 E3        30.23S
PRESTON        FAIR      55  32  41 E5        30.25S
$$
ABBREVIATIONS USED IN REMARKS
   TC - TEMPERATURES IN CELSIUS
  WCI - WIND CHILL INDEX
   HX - HEAT INDEX
  VSB - VISIBILITY
$$



USA.gov is the U.S. government's official web portal to all federal, state and local government web resources and services.